When you browse on this site, cookies collect data to enhance your experience and personalize the content and advertising you see.
Visit our Privacy Policy to learn more. By continuing to use the site, you agree to this use of cookies and data.
  • Em Portugal
  • Lista de países
  • Para 7 dias
  • Temperatura da água
  • Mapa do tempo
  • Widgets de tempo
  • user-avatar
    Iniciar Sessão

    Previsão horária em Oliva

    Hoje, 20 Novembro, Quarta-feira

    Tempo Temperatura Precipitação Vento Pressão Humidade
    00:00 +9°C° 0 mm 3 m/s 758 mmHg 60%
    01:00 +9°C° 0 mm 2 m/s 758 mmHg 60%
    02:00 +9°C° 0 mm 2 m/s 758 mmHg 61%
    03:00 +8°C° 0 mm 2 m/s 757 mmHg 61%
    04:00 +8°C° 0 mm 2 m/s 757 mmHg 62%
    05:00 +8°C° 0 mm 2 m/s 757 mmHg 64%
    06:00 +9°C° 0 mm 1 m/s 757 mmHg 65%
    07:00 +10°C° 0 mm 1 m/s 757 mmHg 59%
    08:00 +12°C° 0 mm 1 m/s 757 mmHg 53%
    09:00 +14°C° 0 mm 1 m/s 757 mmHg 48%
    10:00 +15°C° 0 mm 1 m/s 757 mmHg 46%
    11:00 +16°C° 0 mm 1 m/s 756 mmHg 45%
    12:00 +18°C° 0 mm 1 m/s 756 mmHg 44%
    13:00 +17°C° 0 mm 2 m/s 755 mmHg 46%
    14:00 +17°C° 0 mm 2 m/s 755 mmHg 47%
    15:00 +17°C° 0 mm 3 m/s 754 mmHg 49%
    16:00 +14°C° 0 mm 3 m/s 754 mmHg 55%
    17:00 +13°C° 0 mm 3 m/s 754 mmHg 62%
    18:00 +11°C° 0 mm 4 m/s 755 mmHg 68%
    19:00 +11°C° 0 mm 4 m/s 755 mmHg 69%
    20:00 +11°C° 0 mm 4 m/s 755 mmHg 70%
    21:00 +12°C° 0 mm 4 m/s 755 mmHg 71%
    22:00 +11°C° 0 mm 4 m/s 755 mmHg 71%
    23:00 +11°C° 0 mm 3 m/s 755 mmHg 71%

    Amanhã, 21 Novembro, Quinta-feira

    Tempo Temperatura Precipitação Vento Pressão Humidade
    00:00 +11°C° 0 mm 3 m/s 755 mmHg 71%
    01:00 +10°C° 0 mm 3 m/s 755 mmHg 73%
    02:00 +10°C° 0 mm 3 m/s 755 mmHg 74%
    03:00 +9°C° 0 mm 3 m/s 755 mmHg 76%
    04:00 +9°C° 0 mm 3 m/s 755 mmHg 77%
    05:00 +9°C° 0 mm 3 m/s 755 mmHg 78%
    06:00 +9°C° 0 mm 3 m/s 755 mmHg 79%
    07:00 +10°C° 0 mm 4 m/s 755 mmHg 73%
    08:00 +12°C° 0 mm 4 m/s 756 mmHg 67%
    09:00 +14°C° 0 mm 5 m/s 756 mmHg 61%
    10:00 +15°C° 0 mm 4 m/s 756 mmHg 57%
    11:00 +17°C° 0 mm 4 m/s 755 mmHg 53%
    12:00 +17°C° 0 mm 4 m/s 755 mmHg 48%
    13:00 +18°C° 0 mm 4 m/s 755 mmHg 48%
    14:00 +18°C° 0 mm 4 m/s 755 mmHg 47%
    15:00 +18°C° 0 mm 4 m/s 754 mmHg 47%
    16:00 +17°C° 0 mm 3 m/s 754 mmHg 53%
    17:00 +15°C° 0 mm 2 m/s 755 mmHg 59%
    18:00 +14°C° 0 mm 2 m/s 755 mmHg 65%
    19:00 +14°C° 0 mm 2 m/s 755 mmHg 64%
    20:00 +14°C° 0 mm 2 m/s 755 mmHg 63%
    21:00 +14°C° 0 mm 3 m/s 755 mmHg 62%
    22:00 +14°C° 0 mm 2 m/s 755 mmHg 64%
    23:00 +14°C° 0 mm 2 m/s 755 mmHg 65%

    Depois de amanhã, 22 Novembro, Sexta-feira

    Tempo Temperatura Precipitação Vento Pressão Humidade
    00:00 +13°C° 0 mm 2 m/s 754 mmHg 67%
    01:00 +13°C° 0 mm 2 m/s 754 mmHg 68%
    02:00 +13°C° 0 mm 2 m/s 754 mmHg 68%
    03:00 +13°C° 0 mm 2 m/s 753 mmHg 69%
    04:00 +13°C° 0 mm 2 m/s 753 mmHg 68%
    05:00 +13°C° 0 mm 2 m/s 753 mmHg 67%
    06:00 +13°C° 0 mm 1 m/s 752 mmHg 67%
    07:00 +14°C° 0 mm 2 m/s 752 mmHg 65%
    08:00 +15°C° 0 mm 2 m/s 753 mmHg 64%
    09:00 +16°C° 0 mm 3 m/s 753 mmHg 63%
    10:00 +17°C° 0 mm 4 m/s 752 mmHg 59%
    11:00 +18°C° 0 mm 4 m/s 751 mmHg 56%
    12:00 +19°C° 0 mm 5 m/s 750 mmHg 53%
    13:00 +19°C° 0 mm 6 m/s 750 mmHg 57%
    14:00 +18°C° 0 mm 7 m/s 749 mmHg 61%
    15:00 +18°C° 0 mm 9 m/s 748 mmHg 65%
    16:00 +17°C° 0.1 mm 9 m/s 747 mmHg 70%
    17:00 +17°C° 0.1 mm 10 m/s 747 mmHg 74%
    18:00 +16°C° 0.1 mm 11 m/s 746 mmHg 79%
    19:00 +16°C° 0.3 mm 11 m/s 746 mmHg 81%
    20:00 +14°C° 0.3 mm 10 m/s 746 mmHg 83%
    21:00 +15°C° 0.3 mm 9 m/s 746 mmHg 85%
    22:00 +15°C° 0.4 mm 8 m/s 745 mmHg 80%
    23:00 +14°C° 0.4 mm 7 m/s 745 mmHg 74%

    23 Novembro, Sábado

    Tempo Temperatura Precipitação Vento Pressão Humidade
    00:00 +12°C° 0.4 mm 7 m/s 745 mmHg 68%
    01:00 +12°C° 0 mm 7 m/s 745 mmHg 68%
    02:00 +11°C° 0 mm 8 m/s 745 mmHg 68%
    03:00 +11°C° 0 mm 8 m/s 745 mmHg 68%
    04:00 +11°C° 0 mm 9 m/s 745 mmHg 69%
    05:00 +10°C° 0 mm 9 m/s 745 mmHg 70%
    06:00 +9°C° 0 mm 10 m/s 745 mmHg 70%
    07:00 +9°C° 0 mm 10 m/s 746 mmHg 67%
    08:00 +11°C° 0 mm 11 m/s 746 mmHg 63%
    09:00 +12°C° 0 mm 11 m/s 747 mmHg 59%
    10:00 +12°C° 0.1 mm 10 m/s 747 mmHg 56%
    11:00 +13°C° 0.1 mm 9 m/s 747 mmHg 54%
    12:00 +13°C° 0.1 mm 8 m/s 748 mmHg 51%
    13:00 +13°C° 0 mm 9 m/s 748 mmHg 48%
    14:00 +14°C° 0 mm 10 m/s 748 mmHg 45%
    15:00 +14°C° 0 mm 12 m/s 749 mmHg 43%
    16:00 +13°C° 0 mm 11 m/s 750 mmHg 45%
    17:00 +12°C° 0 mm 11 m/s 751 mmHg 47%
    18:00 +11°C° 0 mm 11 m/s 752 mmHg 49%
    19:00 +11°C° 0 mm 10 m/s 752 mmHg 51%
    20:00 +10°C° 0 mm 9 m/s 753 mmHg 52%
    21:00 +10°C° 0 mm 8 m/s 754 mmHg 53%
    22:00 +10°C° 0 mm 8 m/s 754 mmHg 51%
    23:00 +10°C° 0 mm 8 m/s 755 mmHg 49%

    24 Novembro, Domingo

    Tempo Temperatura Precipitação Vento Pressão Humidade
    00:00 +10°C° 0 mm 8 m/s 755 mmHg 48%
    01:00 +9°C° 0 mm 8 m/s 755 mmHg 49%
    02:00 +9°C° 0 mm 7 m/s 755 mmHg 51%
    03:00 +9°C° 0 mm 7 m/s 756 mmHg 52%
    04:00 +8°C° 0 mm 6 m/s 756 mmHg 53%
    05:00 +8°C° 0 mm 6 m/s 756 mmHg 54%
    06:00 +8°C° 0 mm 6 m/s 757 mmHg 56%
    07:00 +9°C° 0 mm 6 m/s 758 mmHg 53%
    08:00 +10°C° 0 mm 5 m/s 758 mmHg 50%
    09:00 +13°C° 0 mm 5 m/s 759 mmHg 47%
    10:00 +14°C° 0 mm 4 m/s 759 mmHg 44%
    11:00 +15°C° 0 mm 4 m/s 759 mmHg 41%
    12:00 +17°C° 0 mm 4 m/s 759 mmHg 38%
    13:00 +17°C° 0 mm 3 m/s 759 mmHg 38%
    14:00 +17°C° 0 mm 2 m/s 759 mmHg 38%
    15:00 +18°C° 0 mm 2 m/s 759 mmHg 38%
    16:00 +16°C° 0 mm 2 m/s 760 mmHg 45%
    17:00 +14°C° 0 mm 2 m/s 760 mmHg 51%
    18:00 +12°C° 0 mm 2 m/s 761 mmHg 58%
    19:00 +12°C° 0 mm 2 m/s 761 mmHg 59%
    20:00 +10°C° 0 mm 3 m/s 761 mmHg 59%
    21:00 +10°C° 0 mm 3 m/s 762 mmHg 60%
    22:00 +10°C° 0 mm 3 m/s 762 mmHg 60%
    23:00 +10°C° 0 mm 3 m/s 762 mmHg 59%

    25 Novembro, Segunda-feira

    Tempo Temperatura Precipitação Vento Pressão Humidade
    00:00 +9°C° 0 mm 3 m/s 762 mmHg 59%
    01:00 +9°C° 0 mm 3 m/s 762 mmHg 57%
    02:00 +9°C° 0 mm 3 m/s 761 mmHg 55%
    03:00 +9°C° 0 mm 3 m/s 761 mmHg 53%
    04:00 +9°C° 0 mm 3 m/s 761 mmHg 52%
    05:00 +8°C° 0 mm 3 m/s 762 mmHg 52%
    06:00 +8°C° 0 mm 3 m/s 762 mmHg 51%
    07:00 +10°C° 0 mm 2 m/s 762 mmHg 48%
    08:00 +13°C° 0 mm 2 m/s 762 mmHg 46%
    09:00 +15°C° 0 mm 2 m/s 762 mmHg 43%
    10:00 +17°C° 0 mm 2 m/s 762 mmHg 42%
    11:00 +18°C° 0 mm 2 m/s 762 mmHg 41%
    12:00 +20°C° 0 mm 2 m/s 762 mmHg 40%
    13:00 +20°C° 0 mm 2 m/s 761 mmHg 42%
    14:00 +20°C° 0 mm 2 m/s 761 mmHg 44%
    15:00 +21°C° 0 mm 2 m/s 761 mmHg 46%
    16:00 +19°C° 0 mm 2 m/s 761 mmHg 53%
    17:00 +17°C° 0 mm 2 m/s 761 mmHg 60%
    18:00 +14°C° 0 mm 3 m/s 761 mmHg 68%
    19:00 +14°C° 0 mm 3 m/s 762 mmHg 68%
    20:00 +14°C° 0 mm 3 m/s 762 mmHg 68%
    21:00 +13°C° 0 mm 3 m/s 762 mmHg 69%
    22:00 +13°C° 0 mm 3 m/s 762 mmHg 69%
    23:00 +14°C° 0 mm 2 m/s 762 mmHg 69%
    Mostrar mais